Location: Days
(41.3591°N, 106.7339°W)
Time: 22:35:56
(UTC+00:00)

O/OREOS (USA 219) - Pass Details

Date: 03 July 2022
Orbit: 621 x 646 km, 72.0° (Epoch: 22 May)

Event Time Altitude Azimuth Distance (km) Brightness Sun altitude
Rises 06:19:17 0° 348° (NNW) 2,963 ? -24.6°
Reaches altitude 10° 06:21:54 10° 1° (N) 2,051 ? -24.7°
Maximum altitude 06:25:46 26° 58° (ENE) 1,285 ? -24.8°
Enters shadow 06:26:46 24° 79° (E) 1,350 ? -24.9°
